Regional Weather Roundup
Issued by NWS

Home | Current Version | Previous Version | Graphics & Text | Print | Product List | Glossary On
Versions: 1 2 3 4 5 6 7 8 9 10 11 12 13 14 15 16 17 18 19 20 21 22 23 24 25 26 27 28 29 30 31 32 33 34 35 36 37 38 39 40 41 42 43 44 45 46 47 48 49 50
000
ASUS43 KFSD 011502
RWRSD

WEATHER ROUNDUP FOR SOUTH DAKOTA
NATIONAL WEATHER SERVICE SIOUX FALLS SD
900 AM CST SUN FEB 01 2015

NOTE: "FAIR" INDICATES FEW OR NO CLOUDS BELOW 12,000 FEET WITH NO
SIGNIFICANT WEATHER AND/OR OBSTRUCTIONS TO VISIBILITY.


SDZ001>005-009-010-012>017-011600-
NORTHWEST AND NORTH CENTRAL SOUTH DAKOTA

CITY           SKY/WX    TMP DP  RH WIND       PRES   REMARKS
BUFFALO          N/A     -4  -9  79 W6        30.30R WCI -16
FAITH            N/A     -2  -8  76 N16       30.39R WCI -23
MOBRIDGE       LGT SNOW  -3 -10  72 N15       30.43R WCI -23
$$

SDZ012>016-024>037-041>051-057-063-072>074-011600-
SOUTHWEST AND SOUTH CENTRAL SOUTH DAKOTA

CITY           SKY/WX    TMP DP  RH WIND       PRES   REMARKS
RAPID CTY ARPT PTCLDY    -1  -5  82 N15       30.33R WCI -21
PIERRE         LGT SNOW  -2  -8  76 N21       30.42R WCI -25
CUSTER         CLOUDY     2  -5  72 N5        30.08R WCI  -8
ELLSWORTH AFB  CLOUDY    -1  -5  82 N13       30.33  HAZE    WCI -19
PHILIP         LGT SNOW   1  -5  75 NW12      30.42R WCI -16
PINE RIDGE     LGT SNOW   4  -2  76 N6        30.30R WCI  -7
WINNER         LGT SNOW   1  -5  75 NW22      30.34R WCI -21
$$

SDZ004>011-016>023-039-040-011600-
NORTHEAST SOUTH DAKOTA

CITY           SKY/WX    TMP DP  RH WIND       PRES   REMARKS
ABERDEEN       CLOUDY    -1 -10  65 N22       30.43R WCI -24
WATERTOWN      CLOUDY    -2  -8  76 N15       30.28R WCI -22
SISSETON         N/A     -3 -10  72 N20       30.41R WCI -26
$$

SDZ017-020-022-023-036>040-048>070-011600-
SOUTHEAST SOUTH DAKOTA

CITY           SKY/WX    TMP DP  RH WIND       PRES   REMARKS
SIOUX FALLS    LGT SNOW   6   2  83 N22G31    30.18R VSB 3/4 WCI -15
HURON          LGT SNOW   0  -7  72 N21G32    30.36R WCI -22
MITCHELL       LGT SNOW   2  -3  80 N22G32    30.33R VSB 3/4 WCI -20
YANKTON        CLOUDY   N/A N/A N/A NW26G32   30.22R
$$

ABBREVIATIONS USED IN REMARKS
   TC - TEMPERATURE IN CELSIUS
  WCI - WIND CHILL INDEX
   HX - HEAT INDEX
  VSB - VISIBILITY



USA.gov is the U.S. government's official web portal to all federal, state and local government web resources and services.